FSF07M LFMD-EGJJ

Flight info

Callsign FSF07M
Flight time 2h 34m
Altitude 18000
Route PERUS A3 RETNO/N0272F240 A3 MURRO/N0280F180 A3 LESPI/N0271F260 A3 MOU/N0280F180 A3 DOMOD H20 KOVAK A34 BENAR H20 LGL H490 SENLO/N0273F260 G274 BEVAV
Aircraft PC12/L-SDFGRWY/S

Departure

Time 2026-04-26 09:35
Airport Cannes Mandelieu Airport (LFMD)

Arrival

Time 2026-04-26 12:09
Airport Jersey Airport (EGJJ)
Time Latitude Longitude Altitude Speed Heading
2026-04-26 08:55 43.54807 6.95339 13 ft 0 kts 83°
2026-04-26 09:28 43.54803 6.95354 14 ft 6 kts 131°
2026-04-26 09:29 43.54786 6.95326 13 ft 10 kts 282°
2026-04-26 09:29 43.54831 6.95252 13 ft 12 kts 352°
2026-04-26 09:29 43.54910 6.95235 13 ft 11 kts 349°
2026-04-26 09:29 43.54988 6.95221 14 ft 11 kts 354°
2026-04-26 09:30 43.55064 6.95207 14 ft 11 kts 351°
2026-04-26 09:30 43.55138 6.95192 14 ft 11 kts 355°
2026-04-26 09:30 43.55212 6.95180 14 ft 11 kts 353°
2026-04-26 09:30 43.55285 6.95175 14 ft 10 kts 356°
2026-04-26 09:31 43.55353 6.95162 14 ft 10 kts 348°
2026-04-26 09:31 43.55420 6.95142 15 ft 10 kts 348°
2026-04-26 09:31 43.55487 6.95129 15 ft 10 kts 341°
2026-04-26 09:31 43.55508 6.95054 15 ft 10 kts 233°
2026-04-26 09:32 43.55469 6.94980 15 ft 9 kts 213°
2026-04-26 09:32 43.55429 6.94974 16 ft 0 kts 173°
2026-04-26 09:34 43.55420 6.94977 16 ft 8 kts 169°
2026-04-26 09:34 43.55229 6.95013 12 ft 54 kts 172°
2026-04-26 09:34 43.54707 6.95112 49 ft 88 kts 171°
2026-04-26 09:34 43.54078 6.95192 288 ft 91 kts 173°
2026-04-26 09:35 43.53423 6.95301 525 ft 102 kts 167°
2026-04-26 09:35 43.52831 6.95858 761 ft 110 kts 116°
2026-04-26 09:35 43.52258 6.96550 1088 ft 119 kts 167°
2026-04-26 09:35 43.51321 6.96737 1179 ft 149 kts 165°
2026-04-26 09:36 43.50270 6.97274 1299 ft 172 kts 155°
2026-04-26 09:36 43.49235 6.98034 1746 ft 169 kts 138°
2026-04-26 09:36 43.48461 6.99214 2248 ft 166 kts 129°
2026-04-26 09:36 43.47705 7.00418 2755 ft 166 kts 130°
2026-04-26 09:37 43.46947 7.01604 3248 ft 164 kts 131°
2026-04-26 09:37 43.46191 7.02785 3751 ft 164 kts 130°
2026-04-26 09:37 43.45437 7.03963 4241 ft 164 kts 131°
2026-04-26 09:37 43.44685 7.05138 4742 ft 164 kts 130°
2026-04-26 09:38 43.43951 7.06330 5236 ft 162 kts 119°
2026-04-26 09:38 43.43812 7.07809 5742 ft 158 kts 80°
2026-04-26 09:38 43.44311 7.09155 6171 ft 165 kts 46°
2026-04-26 09:38 43.45353 7.09877 6561 ft 176 kts 10°
2026-04-26 09:39 43.46566 7.09554 6932 ft 188 kts 337°
2026-04-26 09:39 43.47748 7.08691 7295 ft 197 kts 333°
2026-04-26 09:39 43.48966 7.07775 7662 ft 201 kts 334°
2026-04-26 09:39 43.50210 7.06869 8030 ft 203 kts 334°
2026-04-26 09:40 43.51473 7.05958 8405 ft 205 kts 334°
2026-04-26 09:40 43.52738 7.05043 8783 ft 206 kts 334°
2026-04-26 09:40 43.54007 7.04122 9166 ft 206 kts 334°
2026-04-26 09:40 43.55284 7.03196 9554 ft 207 kts 334°
2026-04-26 09:41 43.56565 7.02266 9943 ft 208 kts 334°
2026-04-26 09:41 43.57846 7.01336 10302 ft 208 kts 334°
2026-04-26 09:41 43.59129 7.00404 10665 ft 209 kts 334°
2026-04-26 09:41 43.60415 6.99469 11031 ft 209 kts 334°
2026-04-26 09:42 43.61699 6.98535 11386 ft 209 kts 334°
2026-04-26 09:42 43.62986 6.97599 11745 ft 208 kts 335°
2026-04-26 09:42 43.64251 6.96678 12118 ft 208 kts 334°
2026-04-26 09:42 43.65548 6.95733 12494 ft 208 kts 334°
2026-04-26 09:43 43.66808 6.94815 12872 ft 207 kts 334°
2026-04-26 09:43 43.68087 6.93883 13259 ft 208 kts 335°
2026-04-26 09:43 43.69368 6.92949 13651 ft 208 kts 335°
2026-04-26 09:43 43.70649 6.92014 14029 ft 208 kts 335°
2026-04-26 09:44 43.71930 6.91079 14380 ft 208 kts 335°
2026-04-26 09:44 43.73210 6.90143 14732 ft 208 kts 333°
2026-04-26 09:44 43.74488 6.89209 15087 ft 208 kts 334°
2026-04-26 09:44 43.75767 6.88272 15443 ft 208 kts 333°
2026-04-26 09:45 43.77048 6.87334 15810 ft 209 kts 333°
2026-04-26 09:45 43.78336 6.86391 16183 ft 210 kts 333°
2026-04-26 09:45 43.79628 6.85445 16556 ft 210 kts 332°
2026-04-26 09:45 43.80907 6.84508 16929 ft 211 kts 332°
2026-04-26 09:46 43.82202 6.83559 17310 ft 210 kts 331°
2026-04-26 09:46 43.83498 6.82610 17696 ft 210 kts 331°
2026-04-26 09:46 43.84792 6.81660 18086 ft 210 kts 330°
2026-04-26 09:46 43.86084 6.80710 18470 ft 210 kts 331°
2026-04-26 09:47 43.87375 6.79761 18817 ft 210 kts 330°
2026-04-26 09:47 43.88666 6.78814 19169 ft 210 kts 330°
2026-04-26 09:47 43.89958 6.77864 19520 ft 210 kts 329°
2026-04-26 09:47 43.91228 6.76932 19886 ft 204 kts 329°
2026-04-26 09:48 43.92471 6.76017 20245 ft 201 kts 330°
2026-04-26 09:48 43.93685 6.75066 20612 ft 198 kts 319°
2026-04-26 09:48 43.94512 6.73606 20995 ft 191 kts 294°
2026-04-26 09:48 43.95068 6.71936 21377 ft 190 kts 292°
2026-04-26 09:49 43.95619 6.70263 21759 ft 190 kts 292°
2026-04-26 09:49 43.96168 6.68612 22140 ft 191 kts 292°
2026-04-26 09:49 43.96736 6.66905 22404 ft 198 kts 293°
2026-04-26 09:49 43.97322 6.65141 22668 ft 204 kts 293°
2026-04-26 09:50 43.97922 6.63336 22948 ft 207 kts 292°
2026-04-26 09:50 43.98531 6.61501 23216 ft 211 kts 293°
2026-04-26 09:50 43.99149 6.59638 23489 ft 214 kts 293°
2026-04-26 09:50 43.99774 6.57752 23751 ft 216 kts 293°
2026-04-26 09:51 44.00406 6.55842 23982 ft 218 kts 292°
2026-04-26 09:51 44.01043 6.53916 24207 ft 220 kts 293°
2026-04-26 09:51 44.01679 6.51994 24439 ft 222 kts 293°
2026-04-26 09:51 44.02326 6.50036 24676 ft 224 kts 292°
2026-04-26 09:52 44.02975 6.48069 24910 ft 224 kts 292°
2026-04-26 09:52 44.04275 6.44123 25395 ft 225 kts 293°
2026-04-26 09:52 44.04928 6.42142 25644 ft 226 kts 292°
2026-04-26 09:53 44.05581 6.40156 25883 ft 226 kts 292°
2026-04-26 09:53 44.06233 6.38171 26131 ft 226 kts 292°
2026-04-26 09:53 44.06888 6.36178 26383 ft 227 kts 292°
2026-04-26 09:53 44.07544 6.34180 26633 ft 227 kts 292°
2026-04-26 09:54 44.08199 6.32183 26888 ft 227 kts 292°
2026-04-26 09:54 44.08846 6.30209 27141 ft 227 kts 292°
2026-04-26 09:54 44.09501 6.28210 27401 ft 227 kts 292°
2026-04-26 09:54 44.10156 6.26209 27659 ft 227 kts 292°
2026-04-26 09:55 44.10810 6.24209 27917 ft 227 kts 292°
2026-04-26 09:55 44.11465 6.22203 28092 ft 231 kts 292°
2026-04-26 09:55 44.12139 6.20139 28097 ft 237 kts 292°
2026-04-26 09:55 44.12833 6.18014 28100 ft 244 kts 292°
2026-04-26 09:56 44.13542 6.15843 28104 ft 249 kts 292°
2026-04-26 09:56 44.14263 6.13629 28102 ft 252 kts 292°
2026-04-26 09:56 44.14990 6.11399 28104 ft 254 kts 292°
2026-04-26 09:56 44.15839 6.09235 28104 ft 256 kts 300°
2026-04-26 09:57 44.16832 6.07159 28106 ft 258 kts 301°
2026-04-26 09:57 44.17823 6.05098 28105 ft 259 kts 301°
2026-04-26 09:57 44.18833 6.02976 28106 ft 260 kts 301°
2026-04-26 09:57 44.19817 6.00899 28105 ft 260 kts 301°
2026-04-26 09:58 44.20819 5.98789 28108 ft 261 kts 301°
2026-04-26 09:58 44.21818 5.96685 28109 ft 261 kts 301°
2026-04-26 09:58 44.22821 5.94569 28105 ft 262 kts 301°
2026-04-26 09:58 44.23825 5.92448 28109 ft 262 kts 301°
2026-04-26 09:59 44.24830 5.90326 28106 ft 261 kts 301°
2026-04-26 09:59 44.25493 5.88926 28106 ft 261 kts 301°
2026-04-26 09:59 44.26831 5.86094 28107 ft 262 kts 300°
2026-04-26 09:59 44.27837 5.83962 28105 ft 264 kts 300°
2026-04-26 10:00 44.28851 5.81815 28106 ft 265 kts 300°
2026-04-26 10:00 44.29867 5.79662 28106 ft 266 kts 300°
2026-04-26 10:00 44.30872 5.77529 28108 ft 267 kts 300°
2026-04-26 10:00 44.31892 5.75363 28110 ft 267 kts 300°
2026-04-26 10:01 44.32914 5.73190 28109 ft 267 kts 300°
2026-04-26 10:01 44.33935 5.71019 28117 ft 267 kts 300°
2026-04-26 10:01 44.34956 5.68846 28107 ft 268 kts 300°
2026-04-26 10:01 44.35982 5.66661 28107 ft 269 kts 300°
2026-04-26 10:02 44.37011 5.64469 28110 ft 270 kts 300°
2026-04-26 10:02 44.37984 5.62240 28116 ft 267 kts 291°
2026-04-26 10:02 44.38558 5.59794 28114 ft 264 kts 283°
2026-04-26 10:02 44.39064 5.57325 28117 ft 265 kts 283°
2026-04-26 10:03 44.39581 5.54847 28116 ft 265 kts 284°
2026-04-26 10:03 44.40105 5.52381 28114 ft 265 kts 284°
2026-04-26 10:03 44.40630 5.49904 28117 ft 265 kts 284°
2026-04-26 10:03 44.41151 5.47424 28123 ft 265 kts 284°
2026-04-26 10:04 44.41672 5.44942 28125 ft 266 kts 284°
2026-04-26 10:04 44.42187 5.42489 28125 ft 266 kts 284°
2026-04-26 10:04 44.42710 5.39997 28121 ft 266 kts 284°
2026-04-26 10:04 44.43230 5.37514 28121 ft 266 kts 284°
2026-04-26 10:05 44.43749 5.35033 28119 ft 266 kts 283°
2026-04-26 10:05 44.44099 5.33356 28124 ft 266 kts 284°
2026-04-26 10:05 44.44613 5.30900 28120 ft 266 kts 283°
2026-04-26 10:05 44.45132 5.28410 28121 ft 267 kts 283°
2026-04-26 10:06 44.45651 5.25919 28125 ft 267 kts 283°
2026-04-26 10:06 44.46170 5.23422 28124 ft 267 kts 283°
2026-04-26 10:06 44.46688 5.20925 28127 ft 267 kts 283°
2026-04-26 10:06 44.47204 5.18433 28124 ft 267 kts 283°
2026-04-26 10:07 44.47723 5.15925 28127 ft 267 kts 283°
2026-04-26 10:07 44.48239 5.13427 28126 ft 267 kts 283°
2026-04-26 10:07 44.48753 5.10933 28128 ft 266 kts 283°
2026-04-26 10:07 44.49260 5.08475 28127 ft 266 kts 283°
2026-04-26 10:08 44.49776 5.05970 28126 ft 267 kts 283°
2026-04-26 10:08 44.50289 5.03476 28125 ft 267 kts 283°
2026-04-26 10:08 44.50802 5.00977 28130 ft 266 kts 283°
2026-04-26 10:08 44.51315 4.98475 28133 ft 267 kts 283°
2026-04-26 10:09 44.51828 4.95969 28132 ft 267 kts 283°
2026-04-26 10:09 44.52340 4.93467 28134 ft 268 kts 283°
2026-04-26 10:09 44.52854 4.90957 28135 ft 268 kts 283°
2026-04-26 10:09 44.53365 4.88447 28133 ft 268 kts 283°
2026-04-26 10:10 44.53877 4.85934 28135 ft 268 kts 283°
2026-04-26 10:10 44.54388 4.83427 28135 ft 268 kts 283°
2026-04-26 10:10 44.54902 4.80948 28133 ft 268 kts 285°
2026-04-26 10:10 44.55829 4.78676 28128 ft 274 kts 307°
2026-04-26 10:11 44.57354 4.77052 28121 ft 280 kts 330°
2026-04-26 10:11 44.59174 4.76047 28126 ft 281 kts 335°
2026-04-26 10:11 44.61021 4.75134 28129 ft 281 kts 336°
2026-04-26 10:11 44.62865 4.74214 28128 ft 280 kts 335°
2026-04-26 10:12 44.64693 4.73271 28127 ft 279 kts 335°
2026-04-26 10:12 44.66512 4.72327 28133 ft 279 kts 336°
2026-04-26 10:12 44.68337 4.71390 28140 ft 279 kts 336°
2026-04-26 10:12 44.70165 4.70453 28139 ft 279 kts 336°
2026-04-26 10:13 44.71988 4.69513 28142 ft 279 kts 335°
2026-04-26 10:13 44.73814 4.68569 28137 ft 279 kts 336°
2026-04-26 10:13 44.75641 4.67627 28141 ft 279 kts 336°
2026-04-26 10:13 44.77465 4.66687 28140 ft 280 kts 336°
2026-04-26 10:14 44.79296 4.65742 28143 ft 280 kts 336°
2026-04-26 10:14 44.81101 4.64808 28145 ft 280 kts 335°
2026-04-26 10:14 44.82934 4.63860 28144 ft 281 kts 336°
2026-04-26 10:14 44.84767 4.62912 28144 ft 280 kts 335°
2026-04-26 10:15 44.86599 4.61962 28144 ft 281 kts 336°
2026-04-26 10:15 44.88435 4.61010 28143 ft 280 kts 335°
2026-04-26 10:15 44.90263 4.60062 28152 ft 280 kts 335°
2026-04-26 10:15 44.92095 4.59113 28156 ft 280 kts 335°
2026-04-26 10:16 44.93923 4.58164 28155 ft 280 kts 335°
2026-04-26 10:16 44.95731 4.57223 28160 ft 280 kts 335°
2026-04-26 10:16 44.97561 4.56272 28158 ft 280 kts 335°
2026-04-26 10:16 44.99390 4.55321 28167 ft 280 kts 335°
2026-04-26 10:17 45.01221 4.54367 28167 ft 280 kts 335°
2026-04-26 10:17 45.03053 4.53412 28167 ft 280 kts 335°
2026-04-26 10:17 45.04885 4.52456 28167 ft 281 kts 335°
2026-04-26 10:17 45.06719 4.51500 28166 ft 281 kts 335°
2026-04-26 10:18 45.08552 4.50543 28169 ft 281 kts 335°
2026-04-26 10:18 45.10383 4.49586 28174 ft 280 kts 335°
2026-04-26 10:18 45.12217 4.48627 28167 ft 280 kts 336°
2026-04-26 10:18 45.14042 4.47671 28169 ft 280 kts 335°
2026-04-26 10:19 45.15853 4.46722 28168 ft 281 kts 336°
2026-04-26 10:19 45.17692 4.45757 28177 ft 282 kts 335°
2026-04-26 10:19 45.19534 4.44791 28179 ft 282 kts 336°
2026-04-26 10:19 45.21375 4.43824 28180 ft 282 kts 335°
2026-04-26 10:20 45.23217 4.42857 28188 ft 282 kts 335°
2026-04-26 10:20 45.25061 4.41887 28192 ft 283 kts 335°
2026-04-26 10:20 45.26906 4.40916 28193 ft 283 kts 335°
2026-04-26 10:20 45.28752 4.39944 28197 ft 283 kts 335°
2026-04-26 10:21 45.30595 4.38973 28199 ft 282 kts 336°
2026-04-26 10:21 45.32435 4.38001 28193 ft 282 kts 336°
2026-04-26 10:21 45.34269 4.37033 28200 ft 281 kts 336°
2026-04-26 10:21 45.36094 4.36067 28195 ft 280 kts 336°
2026-04-26 10:22 45.37918 4.35101 28199 ft 279 kts 336°
2026-04-26 10:22 45.39712 4.34150 28207 ft 278 kts 336°
2026-04-26 10:22 45.41526 4.33188 28208 ft 278 kts 336°
2026-04-26 10:22 45.43341 4.32225 28213 ft 278 kts 336°
2026-04-26 10:23 45.45178 4.31250 28211 ft 278 kts 336°
2026-04-26 10:23 45.46969 4.30298 28211 ft 278 kts 336°
2026-04-26 10:23 45.48781 4.29335 28211 ft 278 kts 336°
2026-04-26 10:23 45.50593 4.28371 28217 ft 278 kts 338°
2026-04-26 10:24 45.52403 4.27408 28216 ft 276 kts 339°
2026-04-26 10:24 45.54196 4.26453 28215 ft 274 kts 339°
2026-04-26 10:24 45.55973 4.25505 28217 ft 271 kts 339°
2026-04-26 10:24 45.57737 4.24565 28214 ft 269 kts 338°
2026-04-26 10:25 45.59485 4.23631 28211 ft 267 kts 338°
2026-04-26 10:25 45.61218 4.22703 28207 ft 266 kts 338°
2026-04-26 10:25 45.62950 4.21778 28210 ft 265 kts 339°
2026-04-26 10:25 45.64677 4.20855 28210 ft 264 kts 338°
2026-04-26 10:26 45.66397 4.19935 28209 ft 264 kts 338°
2026-04-26 10:26 45.68111 4.19017 28207 ft 263 kts 338°
2026-04-26 10:26 45.69817 4.18102 28196 ft 262 kts 339°
2026-04-26 10:26 45.71521 4.17188 28181 ft 260 kts 339°
2026-04-26 10:27 45.73214 4.16279 28183 ft 260 kts 339°
2026-04-26 10:27 45.74886 4.15381 28189 ft 259 kts 339°
2026-04-26 10:27 45.76573 4.14475 28181 ft 259 kts 339°
2026-04-26 10:27 45.78256 4.13570 28191 ft 258 kts 339°
2026-04-26 10:28 45.79940 4.12664 28190 ft 259 kts 340°
2026-04-26 10:28 45.81631 4.11756 28184 ft 260 kts 339°
2026-04-26 10:28 45.83325 4.10843 28187 ft 260 kts 339°
2026-04-26 10:28 45.85022 4.09928 28188 ft 260 kts 339°
2026-04-26 10:29 45.86717 4.09012 28189 ft 259 kts 339°
2026-04-26 10:29 45.88408 4.08098 28191 ft 259 kts 339°
2026-04-26 10:29 45.90100 4.07185 28194 ft 259 kts 340°
2026-04-26 10:29 45.91764 4.06286 28189 ft 259 kts 340°
2026-04-26 10:30 45.93451 4.05374 28190 ft 258 kts 340°
2026-04-26 10:30 45.95135 4.04462 28189 ft 258 kts 340°
2026-04-26 10:30 45.96814 4.03553 28187 ft 258 kts 340°
2026-04-26 10:30 45.98491 4.02644 28184 ft 257 kts 340°
2026-04-26 10:31 46.00170 4.01734 28192 ft 257 kts 340°
2026-04-26 10:31 46.01844 4.00825 28188 ft 257 kts 340°
2026-04-26 10:31 46.03514 3.99919 28192 ft 257 kts 340°
2026-04-26 10:31 46.05183 3.99012 28195 ft 256 kts 340°
2026-04-26 10:32 46.06849 3.98106 28189 ft 256 kts 340°
2026-04-26 10:32 46.08513 3.97201 28186 ft 256 kts 340°
2026-04-26 10:32 46.10177 3.96295 28197 ft 255 kts 340°
2026-04-26 10:32 46.11834 3.95392 28195 ft 254 kts 340°
2026-04-26 10:33 46.13487 3.94491 28193 ft 253 kts 340°
2026-04-26 10:33 46.15132 3.93594 28191 ft 253 kts 340°
2026-04-26 10:33 46.16776 3.92697 28193 ft 252 kts 340°
2026-04-26 10:33 46.18398 3.91811 28192 ft 252 kts 340°
2026-04-26 10:34 46.20039 3.90914 28193 ft 252 kts 340°
2026-04-26 10:34 46.21682 3.90015 28189 ft 253 kts 340°
2026-04-26 10:34 46.23336 3.89111 28194 ft 254 kts 340°
2026-04-26 10:34 46.24990 3.88206 28191 ft 255 kts 340°
2026-04-26 10:35 46.26651 3.87295 28196 ft 255 kts 340°
2026-04-26 10:35 46.28309 3.86386 28189 ft 255 kts 340°
2026-04-26 10:35 46.29969 3.85475 28193 ft 255 kts 340°
2026-04-26 10:35 46.31630 3.84564 28196 ft 255 kts 340°
2026-04-26 10:36 46.33266 3.83665 28190 ft 255 kts 340°
2026-04-26 10:36 46.34925 3.82753 28191 ft 254 kts 340°
2026-04-26 10:36 46.36575 3.81846 28186 ft 254 kts 340°
2026-04-26 10:36 46.38227 3.80937 28192 ft 253 kts 340°
2026-04-26 10:37 46.39874 3.80029 28190 ft 253 kts 340°
2026-04-26 10:37 46.41524 3.79121 28202 ft 253 kts 340°
2026-04-26 10:37 46.43167 3.78214 28198 ft 253 kts 340°
2026-04-26 10:37 46.44813 3.77306 28198 ft 253 kts 340°
2026-04-26 10:38 46.46451 3.76402 28196 ft 252 kts 340°
2026-04-26 10:38 46.48097 3.75507 28199 ft 252 kts 340°
2026-04-26 10:38 46.49744 3.74616 28192 ft 252 kts 340°
2026-04-26 10:38 46.51388 3.73721 28190 ft 252 kts 340°
2026-04-26 10:39 46.53028 3.72826 28183 ft 252 kts 340°
2026-04-26 10:39 46.54665 3.71932 28185 ft 252 kts 340°
2026-04-26 10:39 46.56306 3.71037 28185 ft 251 kts 340°
2026-04-26 10:39 46.57939 3.70145 28182 ft 251 kts 340°
2026-04-26 10:40 46.59551 3.69264 28194 ft 250 kts 340°
2026-04-26 10:40 46.61182 3.68372 28190 ft 250 kts 340°
2026-04-26 10:40 46.62813 3.67480 28189 ft 250 kts 340°
2026-04-26 10:40 46.64440 3.66588 28189 ft 250 kts 340°
2026-04-26 10:41 46.66065 3.65698 28186 ft 250 kts 340°
2026-04-26 10:41 46.67692 3.64806 28187 ft 249 kts 340°
2026-04-26 10:41 46.69315 3.63915 28192 ft 249 kts 340°
2026-04-26 10:41 46.70860 3.62779 28201 ft 250 kts 323°
2026-04-26 10:42 46.72090 3.60986 28206 ft 251 kts 315°
2026-04-26 10:42 46.72870 3.59743 28203 ft 251 kts 314°
2026-04-26 10:42 46.74437 3.57258 28202 ft 251 kts 315°
2026-04-26 10:42 46.75629 3.55392 28198 ft 252 kts 315°
2026-04-26 10:43 46.76825 3.53517 28198 ft 253 kts 315°
2026-04-26 10:43 46.78026 3.51629 28205 ft 254 kts 315°
2026-04-26 10:43 46.79232 3.49730 28207 ft 255 kts 315°
2026-04-26 10:43 46.80438 3.47831 28206 ft 256 kts 315°
2026-04-26 10:44 46.81649 3.45924 28210 ft 256 kts 315°
2026-04-26 10:44 46.82860 3.44014 28210 ft 257 kts 315°
2026-04-26 10:44 46.84078 3.42093 28211 ft 257 kts 315°
2026-04-26 10:44 46.85294 3.40173 28212 ft 257 kts 315°
2026-04-26 10:45 46.86498 3.38293 28212 ft 257 kts 315°
2026-04-26 10:45 46.87721 3.36393 28203 ft 257 kts 315°
2026-04-26 10:45 46.88944 3.34484 28209 ft 257 kts 315°
2026-04-26 10:45 46.90166 3.32572 28205 ft 257 kts 315°
2026-04-26 10:46 46.91391 3.30655 28211 ft 257 kts 315°
2026-04-26 10:46 46.92614 3.28740 28220 ft 257 kts 315°
2026-04-26 10:46 46.93835 3.26827 28210 ft 257 kts 315°
2026-04-26 10:46 46.95054 3.24917 28211 ft 257 kts 315°
2026-04-26 10:47 46.96271 3.23006 28211 ft 257 kts 315°
2026-04-26 10:47 46.97488 3.21095 28212 ft 257 kts 315°
2026-04-26 10:47 46.98707 3.19181 28212 ft 257 kts 315°
2026-04-26 10:47 46.99923 3.17269 28203 ft 257 kts 315°
2026-04-26 10:48 47.01137 3.15358 28214 ft 256 kts 315°
2026-04-26 10:48 47.02353 3.13443 28207 ft 256 kts 315°
2026-04-26 10:48 47.03566 3.11532 28214 ft 256 kts 315°
2026-04-26 10:48 47.04781 3.09616 28210 ft 256 kts 315°
2026-04-26 10:49 47.05976 3.07730 28211 ft 256 kts 315°
2026-04-26 10:49 47.07190 3.05812 28207 ft 256 kts 315°
2026-04-26 10:49 47.08404 3.03894 28213 ft 257 kts 315°
2026-04-26 10:49 47.09617 3.01976 28212 ft 257 kts 315°
2026-04-26 10:50 47.10832 3.00054 28213 ft 257 kts 315°
2026-04-26 10:50 47.11636 2.98780 28200 ft 257 kts 315°
2026-04-26 10:50 47.13260 2.96196 28200 ft 258 kts 314°
2026-04-26 10:50 47.14477 2.94247 28202 ft 259 kts 314°
2026-04-26 10:51 47.15696 2.92295 28200 ft 260 kts 314°
2026-04-26 10:51 47.18104 2.88313 28190 ft 260 kts 313°
2026-04-26 10:51 47.19290 2.86352 28195 ft 260 kts 313°
2026-04-26 10:52 47.20494 2.84371 28199 ft 260 kts 313°
2026-04-26 10:52 47.21697 2.82388 28197 ft 260 kts 313°
2026-04-26 10:52 47.22894 2.80407 28192 ft 259 kts 313°
2026-04-26 10:52 47.24094 2.78423 28198 ft 259 kts 313°
2026-04-26 10:53 47.25291 2.76441 28195 ft 259 kts 313°
2026-04-26 10:53 47.26488 2.74460 28200 ft 259 kts 313°
2026-04-26 10:53 47.27681 2.72478 28201 ft 258 kts 313°
2026-04-26 10:54 47.29657 2.69174 28201 ft 258 kts 313°
2026-04-26 10:54 47.30848 2.67185 28201 ft 258 kts 313°
2026-04-26 10:54 47.32037 2.65198 28200 ft 258 kts 313°
2026-04-26 10:54 47.33223 2.63215 28203 ft 258 kts 313°
2026-04-26 10:55 47.34409 2.61230 28196 ft 258 kts 313°
2026-04-26 10:55 47.35594 2.59243 28201 ft 258 kts 313°
2026-04-26 10:55 47.36777 2.57261 28212 ft 257 kts 312°
2026-04-26 10:55 47.37957 2.55281 28212 ft 257 kts 312°
2026-04-26 10:56 47.39138 2.53300 28214 ft 257 kts 312°
2026-04-26 10:56 47.40299 2.51347 28214 ft 256 kts 312°
2026-04-26 10:56 47.41473 2.49374 28195 ft 256 kts 312°
2026-04-26 10:56 47.42643 2.47406 28199 ft 255 kts 312°
2026-04-26 10:57 47.43817 2.45429 28203 ft 255 kts 312°
2026-04-26 10:57 47.44983 2.43465 28205 ft 255 kts 312°
2026-04-26 10:57 47.46152 2.41493 28206 ft 254 kts 312°
2026-04-26 10:57 47.47318 2.39526 28203 ft 254 kts 312°
2026-04-26 10:58 47.48483 2.37559 28195 ft 254 kts 312°
2026-04-26 10:58 47.49648 2.35590 28195 ft 254 kts 312°
2026-04-26 10:58 47.50812 2.33621 28195 ft 254 kts 312°
2026-04-26 10:58 47.51959 2.31680 28203 ft 254 kts 312°
2026-04-26 10:59 47.53119 2.29714 28204 ft 253 kts 312°
2026-04-26 10:59 47.54278 2.27750 28200 ft 253 kts 312°
2026-04-26 10:59 47.55436 2.25786 28201 ft 253 kts 311°
2026-04-26 10:59 47.56594 2.23820 28206 ft 253 kts 312°
2026-04-26 11:00 47.57704 2.21795 28211 ft 253 kts 303°
2026-04-26 11:00 47.58475 2.19465 28218 ft 252 kts 296°
2026-04-26 11:00 47.59195 2.17092 28217 ft 252 kts 296°
2026-04-26 11:00 47.59924 2.14731 28216 ft 252 kts 296°
2026-04-26 11:01 47.60664 2.12368 28216 ft 253 kts 296°
2026-04-26 11:01 47.61402 2.10002 28217 ft 253 kts 296°
2026-04-26 11:01 47.62136 2.07636 28215 ft 253 kts 296°
2026-04-26 11:01 47.62870 2.05268 28216 ft 253 kts 296°
2026-04-26 11:02 47.63604 2.02899 28216 ft 253 kts 296°
2026-04-26 11:02 47.64327 2.00567 28212 ft 252 kts 296°
2026-04-26 11:02 47.65059 1.98202 28212 ft 252 kts 296°
2026-04-26 11:02 47.65790 1.95837 28213 ft 252 kts 296°
2026-04-26 11:03 47.66520 1.93474 28209 ft 252 kts 296°
2026-04-26 11:03 47.67253 1.91098 28209 ft 252 kts 296°
2026-04-26 11:03 47.67981 1.88734 28210 ft 252 kts 296°
2026-04-26 11:03 47.68711 1.86366 28208 ft 252 kts 296°
2026-04-26 11:04 47.69439 1.83999 28210 ft 252 kts 296°
2026-04-26 11:04 47.70166 1.81633 28211 ft 252 kts 296°
2026-04-26 11:04 47.70895 1.79260 28213 ft 252 kts 296°
2026-04-26 11:04 47.71621 1.76895 28214 ft 252 kts 296°
2026-04-26 11:05 47.72349 1.74520 28213 ft 252 kts 296°
2026-04-26 11:05 47.73075 1.72146 28213 ft 252 kts 296°
2026-04-26 11:05 47.73798 1.69778 28213 ft 252 kts 296°
2026-04-26 11:05 47.74522 1.67406 28209 ft 252 kts 296°
2026-04-26 11:06 47.75238 1.65062 28209 ft 252 kts 296°
2026-04-26 11:06 47.75962 1.62686 28209 ft 252 kts 296°
2026-04-26 11:06 47.76683 1.60316 28208 ft 251 kts 296°
2026-04-26 11:06 47.77404 1.57946 28209 ft 251 kts 296°
2026-04-26 11:07 47.78123 1.55577 28209 ft 251 kts 296°
2026-04-26 11:07 47.78842 1.53210 28210 ft 251 kts 296°
2026-04-26 11:07 47.79561 1.50839 28222 ft 252 kts 296°
2026-04-26 11:07 47.80281 1.48462 28222 ft 252 kts 296°
2026-04-26 11:08 47.81004 1.46073 28224 ft 253 kts 296°
2026-04-26 11:08 47.81726 1.43684 28230 ft 253 kts 296°
2026-04-26 11:08 47.82439 1.41323 28229 ft 254 kts 296°
2026-04-26 11:08 47.83161 1.38932 28229 ft 254 kts 296°
2026-04-26 11:09 47.83885 1.36531 28228 ft 254 kts 296°
2026-04-26 11:09 47.84608 1.34129 28226 ft 254 kts 296°
2026-04-26 11:09 47.85333 1.31721 28227 ft 254 kts 296°
2026-04-26 11:09 47.86056 1.29316 28226 ft 255 kts 296°
2026-04-26 11:10 47.86778 1.26908 28222 ft 255 kts 296°
2026-04-26 11:10 47.87499 1.24496 28212 ft 255 kts 296°
2026-04-26 11:10 47.88217 1.22088 28218 ft 255 kts 296°
2026-04-26 11:10 47.88939 1.19670 28218 ft 255 kts 296°
2026-04-26 11:11 47.89658 1.17257 28217 ft 255 kts 296°
2026-04-26 11:11 47.90367 1.14875 28216 ft 255 kts 296°
2026-04-26 11:11 47.91087 1.12457 28216 ft 255 kts 296°
2026-04-26 11:11 47.91805 1.10040 28217 ft 255 kts 296°
2026-04-26 11:12 47.92522 1.07625 28220 ft 255 kts 296°
2026-04-26 11:12 47.93240 1.05204 28220 ft 255 kts 296°
2026-04-26 11:12 47.93958 1.02784 28220 ft 255 kts 296°
2026-04-26 11:12 47.94674 1.00365 28218 ft 255 kts 296°
2026-04-26 11:13 47.95390 0.97942 28221 ft 255 kts 296°
2026-04-26 11:13 47.96106 0.95518 28221 ft 255 kts 296°
2026-04-26 11:13 47.96822 0.93095 28220 ft 255 kts 296°
2026-04-26 11:13 47.97536 0.90672 28222 ft 255 kts 296°
2026-04-26 11:14 47.98251 0.88245 28219 ft 256 kts 295°
2026-04-26 11:14 47.99113 0.85953 28221 ft 253 kts 311°
2026-04-26 11:14 48.00487 0.84339 28217 ft 253 kts 332°
2026-04-26 11:14 48.02141 0.83519 28229 ft 254 kts 342°
2026-04-26 11:15 48.03859 0.82864 28227 ft 255 kts 343°
2026-04-26 11:15 48.05584 0.82209 28229 ft 255 kts 342°
2026-04-26 11:15 48.07301 0.81534 28229 ft 255 kts 342°
2026-04-26 11:15 48.09022 0.80853 28229 ft 256 kts 342°
2026-04-26 11:16 48.10746 0.80176 28230 ft 256 kts 342°
2026-04-26 11:16 48.12470 0.79500 28231 ft 256 kts 342°
2026-04-26 11:16 48.14194 0.78822 28233 ft 256 kts 342°
2026-04-26 11:16 48.15917 0.78144 28232 ft 256 kts 342°
2026-04-26 11:17 48.17641 0.77465 28231 ft 256 kts 342°
2026-04-26 11:17 48.19366 0.76784 28233 ft 256 kts 342°
2026-04-26 11:17 48.21090 0.76105 28233 ft 256 kts 342°
2026-04-26 11:17 48.22818 0.75423 28242 ft 257 kts 342°
2026-04-26 11:18 48.24546 0.74740 28240 ft 257 kts 342°
2026-04-26 11:18 48.26251 0.74067 28240 ft 256 kts 342°
2026-04-26 11:18 48.27980 0.73385 28240 ft 256 kts 342°
2026-04-26 11:18 48.29706 0.72705 28241 ft 256 kts 342°
2026-04-26 11:19 48.31431 0.72025 28243 ft 256 kts 342°
2026-04-26 11:19 48.33154 0.71344 28242 ft 256 kts 342°
2026-04-26 11:19 48.34878 0.70662 28242 ft 256 kts 342°
2026-04-26 11:19 48.36601 0.69980 28243 ft 256 kts 342°
2026-04-26 11:20 48.38327 0.69297 28241 ft 256 kts 342°
2026-04-26 11:20 48.39469 0.68845 28244 ft 256 kts 342°
2026-04-26 11:20 48.41779 0.67930 28243 ft 256 kts 342°
2026-04-26 11:20 48.43507 0.67244 28243 ft 256 kts 342°
2026-04-26 11:21 48.45236 0.66558 28243 ft 257 kts 342°
2026-04-26 11:21 48.46965 0.65871 28242 ft 257 kts 342°
2026-04-26 11:21 48.48690 0.65185 28244 ft 257 kts 342°
2026-04-26 11:21 48.50395 0.64507 28242 ft 257 kts 342°
2026-04-26 11:22 48.52129 0.63816 28245 ft 256 kts 342°
2026-04-26 11:22 48.53855 0.63128 28244 ft 256 kts 342°
2026-04-26 11:22 48.55580 0.62440 28244 ft 256 kts 342°
2026-04-26 11:22 48.57304 0.61751 28246 ft 256 kts 342°
2026-04-26 11:23 48.59029 0.61062 28245 ft 256 kts 342°
2026-04-26 11:23 48.60754 0.60373 28245 ft 256 kts 342°
2026-04-26 11:23 48.62481 0.59682 28246 ft 256 kts 342°
2026-04-26 11:23 48.64208 0.58991 28245 ft 257 kts 342°
2026-04-26 11:24 48.65913 0.58308 28249 ft 257 kts 341°
2026-04-26 11:24 48.67644 0.57614 28250 ft 257 kts 341°
2026-04-26 11:24 48.69375 0.56920 28250 ft 257 kts 341°
2026-04-26 11:24 48.71107 0.56224 28251 ft 257 kts 341°
2026-04-26 11:25 48.72843 0.55527 28257 ft 257 kts 341°
2026-04-26 11:25 48.74575 0.54830 28258 ft 258 kts 341°
2026-04-26 11:25 48.76311 0.54132 28256 ft 258 kts 341°
2026-04-26 11:25 48.77942 0.53103 28258 ft 252 kts 323°
2026-04-26 11:26 48.79158 0.51237 28250 ft 249 kts 302°
2026-04-26 11:26 48.79825 0.48860 28250 ft 248 kts 287°
2026-04-26 11:26 48.80283 0.46329 28251 ft 249 kts 286°
2026-04-26 11:26 48.80735 0.43790 28249 ft 249 kts 286°
2026-04-26 11:27 48.81193 0.41258 28244 ft 249 kts 285°
2026-04-26 11:27 48.81654 0.38722 28245 ft 249 kts 285°
2026-04-26 11:27 48.82114 0.36181 28244 ft 249 kts 285°
2026-04-26 11:27 48.82571 0.33645 28245 ft 249 kts 285°
2026-04-26 11:28 48.83029 0.31102 28243 ft 249 kts 285°
2026-04-26 11:28 48.83485 0.28563 28242 ft 250 kts 285°
2026-04-26 11:28 48.83943 0.26018 28242 ft 250 kts 285°
2026-04-26 11:28 48.84399 0.23471 28243 ft 250 kts 285°
2026-04-26 11:29 48.84856 0.20920 28244 ft 250 kts 285°
2026-04-26 11:29 48.85306 0.18405 28244 ft 250 kts 285°
2026-04-26 11:29 48.85762 0.15855 28244 ft 249 kts 285°
2026-04-26 11:29 48.86214 0.13317 28245 ft 249 kts 285°
2026-04-26 11:30 48.86668 0.10765 28244 ft 250 kts 285°
2026-04-26 11:30 48.86969 0.09073 28244 ft 250 kts 285°
2026-04-26 11:30 48.87575 0.05663 28245 ft 250 kts 285°
2026-04-26 11:30 48.88027 0.03114 28246 ft 250 kts 285°
2026-04-26 11:31 48.88479 0.00563 28243 ft 250 kts 285°
2026-04-26 11:31 48.88925 -0.01959 28236 ft 250 kts 284°
2026-04-26 11:31 48.89382 -0.04545 28237 ft 250 kts 284°
2026-04-26 11:31 48.89828 -0.07074 28237 ft 250 kts 284°
2026-04-26 11:32 48.90280 -0.09640 28238 ft 250 kts 284°
2026-04-26 11:32 48.90729 -0.12198 28239 ft 250 kts 284°
2026-04-26 11:32 48.91178 -0.14757 28243 ft 250 kts 284°
2026-04-26 11:32 48.91627 -0.17314 28245 ft 250 kts 283°
2026-04-26 11:33 48.92075 -0.19875 28244 ft 250 kts 283°
2026-04-26 11:33 48.92523 -0.22435 28247 ft 250 kts 283°
2026-04-26 11:33 48.92969 -0.24994 28247 ft 251 kts 283°
2026-04-26 11:33 48.93405 -0.27528 28248 ft 251 kts 283°
2026-04-26 11:34 48.93836 -0.30093 28249 ft 251 kts 283°
2026-04-26 11:34 48.94270 -0.32668 28249 ft 251 kts 283°
2026-04-26 11:34 48.94705 -0.35235 28251 ft 250 kts 283°
2026-04-26 11:34 48.95139 -0.37802 28251 ft 250 kts 283°
2026-04-26 11:35 48.95572 -0.40369 28254 ft 250 kts 283°
2026-04-26 11:35 48.96005 -0.42943 28255 ft 251 kts 283°
2026-04-26 11:35 48.96437 -0.45515 28256 ft 251 kts 283°
2026-04-26 11:35 48.96723 -0.47213 28257 ft 251 kts 283°
2026-04-26 11:36 48.97300 -0.50658 28254 ft 251 kts 283°
2026-04-26 11:36 48.97731 -0.53234 28253 ft 251 kts 283°
2026-04-26 11:36 48.98160 -0.55801 28254 ft 251 kts 283°
2026-04-26 11:36 48.98590 -0.58375 28253 ft 250 kts 283°
2026-04-26 11:37 48.99016 -0.60937 28250 ft 250 kts 283°
2026-04-26 11:37 48.99444 -0.63507 28250 ft 251 kts 283°
2026-04-26 11:37 48.99873 -0.66087 28250 ft 251 kts 283°
2026-04-26 11:37 49.00294 -0.68627 28250 ft 251 kts 283°
2026-04-26 11:38 49.00720 -0.71202 28249 ft 250 kts 283°
2026-04-26 11:38 49.01146 -0.73777 28249 ft 251 kts 283°
2026-04-26 11:38 49.01571 -0.76348 28247 ft 250 kts 283°
2026-04-26 11:38 49.01994 -0.78919 28248 ft 250 kts 283°
2026-04-26 11:39 49.02417 -0.81486 28249 ft 250 kts 283°
2026-04-26 11:39 49.02840 -0.84058 28249 ft 250 kts 283°
2026-04-26 11:39 49.03262 -0.86630 28246 ft 250 kts 283°
2026-04-26 11:39 49.03684 -0.89210 28243 ft 251 kts 282°
2026-04-26 11:40 49.04109 -0.91808 28239 ft 253 kts 282°
2026-04-26 11:40 49.04536 -0.94419 28236 ft 254 kts 282°
2026-04-26 11:40 49.04962 -0.97026 28237 ft 254 kts 282°
2026-04-26 11:40 49.05388 -0.99642 28238 ft 254 kts 282°
2026-04-26 11:41 49.05814 -1.02261 28239 ft 254 kts 282°
2026-04-26 11:42 49.08292 -1.19737 28252 ft 249 kts 266°
2026-04-26 11:43 49.08199 -1.22371 28246 ft 249 kts 266°
2026-04-26 11:43 49.08108 -1.25020 28088 ft 253 kts 266°
2026-04-26 11:43 49.08031 -1.27697 27693 ft 253 kts 266°
2026-04-26 11:43 49.07954 -1.30372 27306 ft 251 kts 266°
2026-04-26 11:44 49.07872 -1.33026 26929 ft 250 kts 265°
2026-04-26 11:44 49.07787 -1.35680 26552 ft 250 kts 265°
2026-04-26 11:44 49.07705 -1.38297 26183 ft 251 kts 265°
2026-04-26 11:44 49.07622 -1.40955 25814 ft 250 kts 265°
2026-04-26 11:45 49.07538 -1.43604 25447 ft 251 kts 266°
2026-04-26 11:45 49.07452 -1.46261 25087 ft 250 kts 266°
2026-04-26 11:45 49.07366 -1.48910 24733 ft 250 kts 266°
2026-04-26 11:45 49.07280 -1.51566 24381 ft 251 kts 266°
2026-04-26 11:46 49.07193 -1.54220 24038 ft 251 kts 266°
2026-04-26 11:46 49.07105 -1.56871 23672 ft 250 kts 266°
2026-04-26 11:46 49.07017 -1.59522 23264 ft 250 kts 266°
2026-04-26 11:46 49.06929 -1.62169 22861 ft 250 kts 266°
2026-04-26 11:47 49.06840 -1.64809 22464 ft 249 kts 265°
2026-04-26 11:47 49.06750 -1.67440 22069 ft 248 kts 265°
2026-04-26 11:47 49.06733 -1.70054 21678 ft 246 kts 271°
2026-04-26 11:47 49.06850 -1.72666 21298 ft 246 kts 271°
2026-04-26 11:48 49.06960 -1.75275 20925 ft 246 kts 271°
2026-04-26 11:48 49.07069 -1.77874 20562 ft 245 kts 271°
2026-04-26 11:48 49.07179 -1.80458 20193 ft 244 kts 271°
2026-04-26 11:48 49.07289 -1.83037 19830 ft 243 kts 271°
2026-04-26 11:49 49.07397 -1.85610 19474 ft 242 kts 271°
2026-04-26 11:49 49.07504 -1.88176 19115 ft 242 kts 271°
2026-04-26 11:49 49.07610 -1.90731 18768 ft 241 kts 270°
2026-04-26 11:49 49.07714 -1.93241 18408 ft 240 kts 270°
2026-04-26 11:50 49.07818 -1.95780 18005 ft 239 kts 271°
2026-04-26 11:50 49.07922 -1.98311 17606 ft 238 kts 271°
2026-04-26 11:50 49.08024 -2.00837 17212 ft 238 kts 271°
2026-04-26 11:50 49.08126 -2.03348 16825 ft 237 kts 271°
2026-04-26 11:51 49.08226 -2.05853 16446 ft 237 kts 271°
2026-04-26 11:51 49.08327 -2.08359 16065 ft 236 kts 271°
2026-04-26 11:51 49.08426 -2.10862 15691 ft 236 kts 271°
2026-04-26 11:51 49.08525 -2.13355 15323 ft 236 kts 271°
2026-04-26 11:52 49.08623 -2.15859 14958 ft 236 kts 271°
2026-04-26 11:52 49.08720 -2.18323 14602 ft 236 kts 271°
2026-04-26 11:52 49.08816 -2.20813 14255 ft 235 kts 271°
2026-04-26 11:52 49.08913 -2.23306 13879 ft 235 kts 271°
2026-04-26 11:53 49.09009 -2.25807 13482 ft 235 kts 271°
2026-04-26 11:53 49.09105 -2.28294 13091 ft 235 kts 271°
2026-04-26 11:53 49.09200 -2.30795 12703 ft 235 kts 271°
2026-04-26 11:54 49.09388 -2.35786 11941 ft 235 kts 272°
2026-04-26 11:54 49.09481 -2.38278 11568 ft 235 kts 272°
2026-04-26 11:54 49.09573 -2.40740 11203 ft 235 kts 272°
2026-04-26 11:54 49.09665 -2.43238 10838 ft 235 kts 272°
2026-04-26 11:55 49.09757 -2.45732 10477 ft 235 kts 272°
2026-04-26 11:55 49.09849 -2.48222 10117 ft 235 kts 272°
2026-04-26 11:55 49.09940 -2.50718 9723 ft 235 kts 272°
2026-04-26 11:55 49.10062 -2.53185 9329 ft 233 kts 279°
2026-04-26 11:56 49.10675 -2.55466 8932 ft 234 kts 303°
2026-04-26 11:56 49.11828 -2.57211 8547 ft 235 kts 326°
2026-04-26 11:56 49.13333 -2.58132 8163 ft 235 kts 348°
2026-04-26 11:56 49.14958 -2.58084 7782 ft 235 kts 11°
2026-04-26 11:57 49.16442 -2.57070 7404 ft 235 kts 33°
2026-04-26 11:57 49.17551 -2.55249 7030 ft 236 kts 56°
2026-04-26 11:57 49.18107 -2.52929 6663 ft 236 kts 78°
2026-04-26 11:57 49.18329 -2.50450 6281 ft 235 kts 81°
2026-04-26 11:58 49.18531 -2.47949 5902 ft 240 kts 81°
2026-04-26 11:58 49.18753 -2.45408 5525 ft 242 kts 81°
2026-04-26 11:58 49.18982 -2.42849 5153 ft 243 kts 82°
2026-04-26 11:58 49.18993 -2.40288 4757 ft 243 kts 103°
2026-04-26 11:59 49.18091 -2.38149 4358 ft 244 kts 141°
2026-04-26 11:59 49.16526 -2.37298 3967 ft 242 kts 179°
2026-04-26 11:59 49.14959 -2.38088 3580 ft 241 kts 216°
2026-04-26 11:59 49.14041 -2.40174 3183 ft 240 kts 252°
2026-04-26 12:00 49.13757 -2.42650 3002 ft 230 kts 261°
2026-04-26 12:00 49.13474 -2.44994 3003 ft 221 kts 252°
2026-04-26 12:00 49.12918 -2.47172 3004 ft 220 kts 242°
2026-04-26 12:00 49.12238 -2.49227 3007 ft 220 kts 241°
2026-04-26 12:01 49.11560 -2.51331 3007 ft 221 kts 243°
2026-04-26 12:01 49.10903 -2.53472 3010 ft 223 kts 243°
2026-04-26 12:01 49.10244 -2.55623 3009 ft 224 kts 243°
2026-04-26 12:01 49.09790 -2.57886 3004 ft 226 kts 263°
2026-04-26 12:02 49.09965 -2.60283 2999 ft 230 kts 287°
2026-04-26 12:02 49.10763 -2.62397 3001 ft 234 kts 310°
2026-04-26 12:02 49.12077 -2.63858 2995 ft 236 kts 335°
2026-04-26 12:02 49.13675 -2.64368 2996 ft 236 kts
2026-04-26 12:03 49.15245 -2.63843 2998 ft 235 kts 25°
2026-04-26 12:03 49.16546 -2.62385 2988 ft 232 kts 49°
2026-04-26 12:03 49.17338 -2.60272 2985 ft 230 kts 72°
2026-04-26 12:03 49.17510 -2.57872 2996 ft 226 kts 95°
2026-04-26 12:04 49.17667 -2.55489 2999 ft 226 kts 79°
2026-04-26 12:04 49.17996 -2.53126 3000 ft 228 kts 81°
2026-04-26 12:04 49.18230 -2.50727 2997 ft 229 kts 84°
2026-04-26 12:04 49.18414 -2.48311 2999 ft 229 kts 85°
2026-04-26 12:05 49.18619 -2.45891 2985 ft 229 kts 84°
2026-04-26 12:05 49.18818 -2.43464 2998 ft 230 kts 85°
2026-04-26 12:05 49.19015 -2.41051 2915 ft 234 kts 84°
2026-04-26 12:05 49.19230 -2.38500 2607 ft 243 kts 84°
2026-04-26 12:06 49.19440 -2.35957 2282 ft 242 kts 84°
2026-04-26 12:06 49.19637 -2.33551 1976 ft 212 kts 84°
2026-04-26 12:06 49.19812 -2.31431 1697 ft 190 kts 84°
2026-04-26 12:06 49.19969 -2.29531 1453 ft 170 kts 84°
2026-04-26 12:07 49.20105 -2.27905 1244 ft 140 kts 85°
2026-04-26 12:07 49.20221 -2.26528 1068 ft 123 kts 85°
2026-04-26 12:07 49.20324 -2.25291 918 ft 111 kts 84°
2026-04-26 12:07 49.20415 -2.24187 779 ft 98 kts 87°
2026-04-26 12:08 49.20497 -2.23242 627 ft 85 kts 84°
2026-04-26 12:08 49.20583 -2.22375 490 ft 81 kts 84°
2026-04-26 12:08 49.20657 -2.21515 432 ft 85 kts 88°
2026-04-26 12:08 49.20710 -2.20639 315 ft 80 kts 85°
2026-04-26 12:09 49.20786 -2.19812 278 ft 74 kts 85°
2026-04-26 12:09 49.20809 -2.19155 279 ft 38 kts 95°
2026-04-26 12:09 49.20757 -2.18892 278 ft 3 kts 111°
2026-04-26 12:09 49.20747 -2.18858 278 ft 4 kts 126°
2026-04-26 12:10 49.20715 -2.18847 278 ft 5 kts 191°
2026-04-26 12:10 49.20699 -2.18900 278 ft 7 kts 263°
2026-04-26 12:10 49.20691 -2.18986 278 ft 9 kts 261°
2026-04-26 12:10 49.20683 -2.19092 278 ft 11 kts 265°
2026-04-26 12:11 49.20680 -2.19211 278 ft 12 kts 276°
2026-04-26 12:11 49.20703 -2.19338 278 ft 13 kts 281°
2026-04-26 12:11 49.20704 -2.19474 277 ft 8 kts 263°
2026-04-26 12:11 49.20695 -2.19573 277 ft 10 kts 259°
2026-04-26 12:12 49.20648 -2.19644 277 ft 10 kts 222°
2026-04-26 12:12 49.20614 -2.19731 277 ft 10 kts 263°
2026-04-26 12:12 49.20606 -2.19848 277 ft 12 kts 263°
2026-04-26 12:12 49.20589 -2.19926 277 ft 12 kts 215°
2026-04-26 12:13 49.20486 -2.19914 277 ft 11 kts 173°
2026-04-26 12:13 49.20434 -2.19857 277 ft 11 kts 82°
2026-04-26 12:13 49.20441 -2.19737 277 ft 12 kts 90°
2026-04-26 12:13 49.20434 -2.19611 277 ft 12 kts 105°
2026-04-26 12:14 49.20412 -2.19484 277 ft 12 kts 104°
2026-04-26 12:14 49.20402 -2.19352 277 ft 13 kts 88°
2026-04-26 12:14 49.20415 -2.19216 278 ft 12 kts 78°
2026-04-26 12:14 49.20450 -2.19178 278 ft 10 kts 310°
2026-04-26 12:15 49.20451 -2.19232 278 ft 0 kts 256°